DW3823 Weather Reports


time (UTC)temp
C
wind
direction
speed
KPH
gust
KPH
rain 1hr
cm
rain 24hr
cm
rain mn
cm
humidity
%
barometer
mb
20260504014536 11 231 0.0 0.0 0.00 0.03 0.03 65 1016.7
20260504014025 11 231 0.0 1.6 0.00 0.03 0.03 65 1016.6
20260504013525 12 231 0.0 3.2 0.00 0.03 0.03 60 1016.4
20260504013025 12 231 0.0 3.2 0.00 0.03 0.03 58 1016.2
20260504012526 12 231 0.0 1.6 0.00 0.03 0.03 59 1016.2
20260504012024 11 231 0.0 0.0 0.00 0.03 0.03 63 1016.3
20260504011526 11 231 0.0 0.0 0.00 0.03 0.03 63 1016.4
20260504011024 12 231 0.0 1.6 0.00 0.03 0.03 59 1016.4
20260504010523 12 231 0.0 1.6 0.00 0.03 0.03 58 1016.2
20260504010026 12 231 0.0 1.6 0.00 0.03 0.03 58 1016.4
20260504005524 12 231 0.0 3.2 0.00 0.10 0.03 56 1016.4
20260504005028 13 231 0.0 6.4 0.00 0.10 0.03 55 1016.4
20260504004524 13 238 0.0 4.8 0.00 0.10 0.03 53 1016.4
20260504004024 13 272 0.0 3.2 0.00 0.10 0.03 54 1016.4
20260504003522 13 275 0.0 3.2 0.00 0.10 0.03 53 1016.4
20260504003030 14 275 1.6 6.4 0.00 0.10 0.03 50 1016.4
20260504002522 15 204 0.0 4.8 0.00 0.10 0.03 49 1016.3
20260504002022 15 205 0.0 4.8 0.00 0.10 0.03 48 1016.5
20260504001521 15 203 0.0 4.8 0.00 0.10 0.03 47 1016.5
20260504001021 15 209 1.6 4.8 0.00 0.10 0.03 46 1016.7
20260504000519 15 216 1.6 3.2 0.00 0.10 0.03 47 1016.8
20260504000018 15 206 1.6 8.0 0.00 0.10 0.03 46 1016.9
20260503235517 15 169 0.0 8.0 0.00 0.13 0.03 46 1017.0
20260503235018 15 166 3.2 4.8 0.00 0.13 0.03 45 1017.1
20260503234517 15 158 0.0 4.8 0.00 0.13 0.03 44 1017.2
20260503234017 15 155 0.0 4.8 0.00 0.13 0.03 44 1017.2
20260503233517 16 110 1.6 4.8 0.00 0.13 0.03 43 1017.2
20260503233015 16 229 1.6 9.7 0.00 0.13 0.03 44 1017.2
20260503232516 16 188 3.2 9.7 0.00 0.13 0.03 41 1017.2
20260503232015 16 234 3.2 11.3 0.00 0.13 0.03 41 1017.2
20260503231517 16 304 0.0 6.4 0.00 0.13 0.03 40 1017.3
20260503231016 16 219 0.0 9.7 0.00 0.13 0.03 39 1017.3
20260503230517 17 274 1.6 9.7 0.00 0.13 0.03 40 1017.3
20260503230017 17 202 1.6 9.7 0.00 0.13 0.03 38 1017.2
20260503225515 17 289 3.2 9.7 0.00 0.13 0.03 38 1017.3
20260503225016 17 182 3.2 9.7 0.00 0.13 0.03 40 1017.4
20260503224516 17 283 1.6 9.7 0.00 0.13 0.03 41 1017.4
20260503224011 17 244 3.2 14.5 0.00 0.13 0.03 37 1017.5
20260503223514 17 174 3.2 14.5 0.00 0.13 0.03 37 1017.5
20260503223011 17 251 3.2 8.0 0.00 0.13 0.03 37 1017.6
20260503222511 17 17 3.2 11.3 0.00 0.13 0.03 41 1017.5
20260503222009 17 315 4.8 11.3 0.00 0.13 0.03 39 1017.7
20260503221511 17 266 4.8 12.9 0.00 0.13 0.03 37 1017.8
20260503221011 17 166 3.2 12.9 0.00 0.13 0.03 38 1017.8
20260503220509 17 165 4.8 16.1 0.00 0.13 0.03 40 1017.9
20260503220008 17 270 3.2 12.9 0.00 0.13 0.03 40 1017.8
20260503215510 17 219 3.2 12.9 0.00 0.13 0.03 39 1017.8
20260503215009 17 224 3.2 11.3 0.00 0.13 0.03 39 1018.0
20260503214508 18 233 3.2 11.3 0.00 0.13 0.03 41 1018.1
20260503214007 17 226 3.2 6.4 0.00 0.13 0.03 42 1018.1
20260503213506 17 265 1.6 9.7 0.00 0.13 0.03 44 1018.2
20260503213005 17 341 3.2 11.3 0.00 0.13 0.03 40 1018.3
20260503212504 18 170 4.8 14.5 0.00 0.13 0.03 40 1018.3
20260503212004 18 148 4.8 14.5 0.00 0.13 0.03 41 1018.4
20260503211604 17 316 1.6 11.3 0.00 0.13 0.03 41 1018.4
20260503211002 17 264 4.8 12.9 0.00 0.13 0.03 43 1018.5
20260503210504 17 240 6.4 12.9 0.00 0.13 0.03 40 1018.5
20260503210002 17 304 3.2 14.5 0.00 0.13 0.03 38 1018.6
20260503205501 17 307 4.8 14.5 0.00 0.13 0.03 40 1018.6
20260503205101 18 54 4.8 12.9 0.00 0.13 0.03 41 1018.6
20260503204605 17 302 3.2 11.3 0.00 0.13 0.03 44 1018.7
20260503204058 17 242 4.8 17.7 0.00 0.13 0.03 39 1018.8
20260503203557 17 157 4.8 11.3 0.00 0.13 0.03 40 1018.8
20260503203058 17 148 3.2 11.3 0.00 0.13 0.03 41 1019.0
20260503202558 17 308 3.2 9.7 0.00 0.13 0.03 41 1019.1
20260503202055 17 338 1.6 16.1 0.00 0.13 0.03 43 1019.1
20260503201554 17 203 4.8 16.1 0.00 0.13 0.03 41 1019.3
20260503201053 17 242 4.8 16.1 0.00 0.13 0.03 42 1019.3
20260503200553 17 291 3.2 12.9 0.00 0.13 0.03 44 1019.4
20260503200056 17 243 3.2 11.3 0.00 0.13 0.03 46 1019.5
20260503195551 17 194 3.2 11.3 0.00 0.13 0.03 47 1019.5
20260503195050 16 140 3.2 12.9 0.00 0.13 0.03 48 1019.7
20260503194551 16 114 4.8 12.9 0.00 0.13 0.03 44 1019.8
20260503194050 17 160 4.8 24.1 0.00 0.13 0.03 45 1019.9
20260503193550 17 141 3.2 24.1 0.00 0.13 0.03 49 1020.0
20260503193050 17 150 3.2 12.9 0.00 0.13 0.03 46 1020.0
20260503192548 17 108 3.2 11.3 0.00 0.13 0.03 57 1020.0
20260503192048 16 187 3.2 11.3 0.00 0.13 0.03 54 1020.1
20260503191548 16 252 1.6 11.3 0.00 0.13 0.03 50 1020.1
20260503191048 16 272 1.6 11.3 0.00 0.13 0.03 48 1020.3
20260503190550 16 254 1.6 14.5 0.00 0.13 0.03 50 1020.5
20260503190047 16 182 3.2 9.7 0.00 0.13 0.03 51 1020.5
20260503185546 16 278 3.2 11.3 0.00 0.13 0.03 51 1020.5
20260503185050 16 270 3.2 16.1 0.00 0.13 0.03 51 1020.6
20260503184555 16 157 6.4 16.1 0.00 0.13 0.03 50 1020.6
20260503184046 16 247 4.8 11.3 0.00 0.13 0.03 53 1020.7
20260503183546 16 303 1.6 16.1 0.00 0.13 0.03 51 1020.7
20260503183045 16 335 4.8 16.1 0.00 0.13 0.03 54 1020.8
20260503182547 15 217 3.2 12.9 0.00 0.13 0.03 54 1020.9
20260503182043 15 111 4.8 11.3 0.00 0.13 0.03 49 1021.1
20260503181543 15 339 3.2 12.9 0.00 0.13 0.03 53 1021.3
20260503181043 15 277 4.8 12.9 0.00 0.13 0.03 50 1021.3
20260503180546 15 289 4.8 12.9 0.00 0.13 0.03 51 1021.2
20260503180051 15 229 1.6 14.5 0.00 0.13 0.03 52 1021.3
20260503175541 15 267 3.2 14.5 0.00 0.13 0.03 51 1021.4
20260503175040 15 240 4.8 11.3 0.00 0.13 0.03 53 1021.4
20260503174545 15 159 4.8 14.5 0.00 0.13 0.03 54 1021.5
20260503174043 15 292 6.4 14.5 0.00 0.13 0.03 54 1021.7
20260503173538 15 355 4.8 12.9 0.00 0.13 0.03 57 1021.6
20260503173047 15 201 3.2 11.3 0.00 0.13 0.03 55 1021.7
20260503172538 14 287 3.2 9.7 0.00 0.13 0.03 56 1021.7
20260503172036 14 146 4.8 14.5 0.00 0.13 0.03 56 1021.8
20260503171536 13 159 6.4 11.3 0.00 0.13 0.03 57 1021.7
20260503171037 13 271 3.2 12.9 0.00 0.13 0.03 54 1021.9
20260503170536 14 227 4.8 12.9 0.00 0.13 0.03 53 1022.0
20260503150517 11 167 4.8 11.3 0.00 0.13 0.03 73 1022.9
20260503131054 6 165 1.6 8.0 0.00 0.13 0.03 96 1022.7
20260503130555 6 136 0.0 4.8 0.00 0.13 0.03 96 1022.7
20260503110532 5 204 0.0 1.6 0.00 0.13 0.03 96 1021.1
20260503081519 4 55 0.0 0.0 0.00 0.10 0.00 96 1020.8
20260503081015 4 55 0.0 0.0 0.00 0.10 0.00 96 1020.8
20260503080516 4 55 0.0 0.0 0.00 0.10 0.00 96 1020.7
20260503072512 4 55 0.0 0.0 0.00 0.10 0.00 96 1020.3
20260503072015 3 55 0.0 0.0 0.00 0.10 0.00 96 1020.3
20260503071511 3 55 0.0 0.0 0.00 0.10 0.00 96 1020.1
20260503071009 3 55 0.0 0.0 0.00 0.10 0.00 96 1020.1
20260503070511 3 55 0.0 0.0 0.00 0.10 0.00 95 1020.1
20260503055002 4 55 0.0 0.0 0.00 0.10 0.00 95 1020.1
20260503054502 4 55 0.0 0.0 0.00 0.10 0.00 95 1020.1
20260503054003 4 55 0.0 0.0 0.00 0.10 0.00 95 1020.2
20260503053600 5 55 0.0 0.0 0.00 0.10 0.00 95 1020.1
20260503053058 5 55 0.0 0.0 0.00 0.10 0.00 95 1020.0
20260503052558 5 55 0.0 0.0 0.00 0.10 0.00 95 1019.9
20260503052057 5 55 0.0 0.0 0.00 0.10 0.00 95 1020.0
20260503051602 5 55 0.0 0.0 0.00 0.10 0.00 95 1020.0
20260503051056 5 55 0.0 0.0 0.00 0.10 0.00 95 1019.9
20260503050554 5 55 0.0 0.0 0.00 0.10 0.00 95 1019.8
20260503050054 5 55 0.0 0.0 0.00 0.10 0.00 95 1019.8
20260503045554 5 55 0.0 0.0 0.00 0.10 0.10 95 1019.7
20260503045053 5 55 0.0 0.0 0.00 0.10 0.10 94 1019.7
20260503044553 5 55 0.0 0.0 0.00 0.10 0.10 94 1019.7
20260503044055 5 55 0.0 1.6 0.00 0.10 0.10 94 1019.8
20260503043552 5 55 0.0 1.6 0.00 0.10 0.10 94 1019.7
20260503043053 5 55 0.0 0.0 0.00 0.10 0.10 94 1019.7
20260503042552 6 55 0.0 0.0 0.00 0.10 0.10 94 1019.7
20260503042051 6 55 0.0 0.0 0.00 0.10 0.10 93 1019.6
20260503041551 6 55 0.0 0.0 0.00 0.10 0.10 93 1019.6
20260503041050 6 55 0.0 0.0 0.00 0.10 0.10 93 1019.5
20260503040550 6 55 0.0 0.0 0.00 0.10 0.10 93 1019.4
20260503040057 6 55 0.0 0.0 0.00 0.10 0.10 93 1019.4
20260503035550 6 55 0.0 0.0 0.00 0.10 0.10 93 1019.4
20260503035051 6 55 0.0 0.0 0.00 0.10 0.10 93 1019.4
20260503034550 6 55 0.0 0.0 0.00 0.10 0.10 93 1019.3
20260503034048 7 55 0.0 0.0 0.00 0.10 0.10 93 1019.3
20260503033547 7 55 0.0 0.0 0.00 0.10 0.10 92 1019.3
20260503033050 7 55 0.0 0.0 0.00 0.10 0.10 92 1019.3
20260503032548 7 55 0.0 0.0 0.00 0.10 0.10 92 1019.2
20260503032049 7 55 0.0 0.0 0.00 0.10 0.10 92 1019.2
20260503031547 7 55 0.0 0.0 0.00 0.10 0.10 92 1019.2
20260503031047 7 55 0.0 0.0 0.00 0.10 0.10 92 1019.2
20260503030547 7 55 0.0 0.0 0.00 0.10 0.10 92 1019.2
20260503030052 7 55 0.0 0.0 0.00 0.10 0.10 92 1019.1
20260503025548 7 55 0.0 1.6 0.00 0.10 0.10 91 1019.2
20260503025051 7 55 0.0 1.6 0.00 0.10 0.10 91 1019.2
20260503024545 7 55 0.0 0.0 0.00 0.10 0.10 91 1019.1
20260503024044 7 55 0.0 1.6 0.00 0.10 0.10 91 1019.1
20260503023544 7 55 0.0 1.6 0.00 0.10 0.10 91 1019.0
20260503023050 7 55 0.0 1.6 0.00 0.10 0.10 91 1019.1
20260503022543 7 55 0.0 1.6 0.00 0.10 0.10 91 1019.0
20260503022043 7 55 0.0 1.6 0.00 0.10 0.10 91 1019.0
20260503021551 7 55 0.0 1.6 0.00 0.10 0.10 91 1019.0
20260503021043 7 55 0.0 0.0 0.00 0.10 0.10 90 1018.9
20260503020543 7 55 0.0 0.0 0.00 0.10 0.10 90 1018.8
20260503020049 7 55 0.0 3.2 0.00 0.10 0.10 90 1018.8
20260503015541 7 55 0.0 4.8 0.00 0.10 0.10 90 1018.7
20260503015041 7 73 0.0 4.8 0.00 0.10 0.10 90 1018.7